Tracking 30970 objects as of 3-Jul-2025
HD Live streaming from Space Station
objects crossing your sky now

MARCOPOLO 2 R/B(PAM-D)

Track MARCOPOLO 2 R/B(PAM-D) now!


NORAD ID: 20764
Int'l Code: 1990-074C
Perigee: 444.7 km
Apogee: 36,993.0 km
Inclination: 21.6 °
Period: 659.2 minutes
Semi major axis: 25089 km
RCS: 3.0298 m2 (large)
Launch date: August 18, 1990
Source: United States (US)
Launch site: AIR FORCE EASTERN TEST RANGE (AFETR)

Note: This is a ROCKET BODY
Your satellite tracking list
STARLINK-3653
Track 1 satellite(s)




NASA's NSSDC Master Catalog

Two Line Element Set (TLE):
1 20764U 90074C   25180.63014028 -.00000044  00000-0  72349-3 0  9996
2 20764  21.5956   9.4948 7283471 243.2718  27.6155  2.18451316276082
Source of the keplerian elements: AFSPC